Flag for Germany Weather past 2 weeks in Willich, North Rhine-Westphalia, Germany

Now
39 °F

Sprinkles. Partly sunny.


Feels Like: 32 °F
Forecast: 39 / 47 °F
Wind: 10 mph from West

Location: Monchengladbach Airport

Current Time: Apr 1, 2015 at 10:21:28 AM

Latest Report: Apr 1, 2015 at 9:50 AM


Visibility: N/A

Pressure: 30.04 "Hg

Humidity: 87%

Dew point: 36 °F

Location of WillichLocation

Historic Weather in Willich — Graph

°F

Willich temperature yesterday

Maximum temperature yesterday: 54 °F (at 9:50 AM)
Minimum temperature yesterday: 45 °F (at 8:20 PM)
Average temperature yesterday: 52 °F

Past Weeks' High & Low Weather Summary

 TemperatureHumidityPressure
High64 °F (Mar 17, 3:20 PM)100% (Mar 17, 8:20 AM)30.39 "Hg (Mar 17, 8:20 AM)
Low34 °F (Mar 23, 7:50 AM)34% (Mar 17, 3:20 PM)29.27 "Hg (Mar 29, 7:50 PM)
Average47 °F77%29.97 "Hg
* Reported Mar 17 8:20 AM — Apr 1 9:20 AM, Willich, Weather by CustomWeather, © 2015

Note: Actual official high and low records may vary slightly from our data, if they occured in-between our weather recording intervals... More about our weather records

Advertising

Willich weather history for previous 24 hours

 ConditionsComfort  
Time TempWeatherWind HumidityBarometerVisibility
9:20 AM
Wed, Apr 1
37 °FScattered clouds.16 mph93%30.04 "HgN/A
8:50 AM39 °FSprinkles. Partly sunny.17 mph87%30.01 "HgN/A
8:20 AM41 °FScattered showers. Partly sunny.14 mph70%29.98 "HgN/A
7:50 AM41 °FScattered showers. Partly sunny.16 mph70%29.95 "HgN/A
8:20 PM
Tue, Mar 31
45 °FScattered showers. Passing clouds.17 mph66%29.77 "HgN/A
7:50 PM48 °FScattered showers. Passing clouds.17 mph58%29.74 "HgN/A
7:20 PM50 °FScattered showers. Passing clouds.15 mph54%29.74 "HgN/A
6:50 PM50 °FScattered showers. Passing clouds.16 mph54%29.71 "HgN/A
6:20 PM52 °FRain showers. Passing clouds.17 mph50%29.71 "Hg4 mi
5:50 PM52 °FScattered showers. Passing clouds.21 mph50%29.71 "HgN/A
5:20 PM52 °FPassing clouds.26 mph44%29.71 "HgN/A
4:50 PM52 °FClear.24 mph44%29.68 "Hg10 mi
4:20 PM52 °FPassing clouds.29 mph50%29.68 "HgN/A
3:50 PM54 °FPassing clouds.28 mph44%29.65 "HgN/A
3:20 PM52 °FPassing clouds.22 mph50%29.62 "HgN/A
2:50 PM52 °FScattered showers. Passing clouds.24 mph54%29.59 "HgN/A
2:20 PM54 °FScattered showers. Passing clouds.25 mph51%29.59 "HgN/A
1:50 PM52 °FPassing clouds.28 mph50%29.53 "HgN/A
1:20 PM50 °FScattered showers. Passing clouds.28 mph67%29.53 "HgN/A
12:50 PM52 °FPassing clouds.28 mph54%29.50 "HgN/A
12:20 PM54 °FPassing clouds.25 mph54%29.47 "HgN/A
11:50 AM54 °FPartly sunny.28 mph54%29.45 "HgN/A
11:20 AM54 °FPartly sunny.23 mph58%29.45 "HgN/A
10:50 AM52 °FPartly sunny.25 mph62%29.42 "HgN/A
10:20 AM54 °FSprinkles. Partly sunny.25 mph58%29.42 "HgN/A
Weather by CustomWeather, © 2015

See weather overviewHow to use our weather pages